[[{"header":{"parameterUnit":"m.s-1","parameterCategory":1,"la1":30.2991,"la2":30.254,"lo1":-89.0895,"lo2":-89.0444,"dy":0.0017,"dx":0.0017,"nx":28,"ny":28,"refTime":"2026-01-29T09:00:00:Z","depth":0,"parameterNumber":2,"parameterNumberName":"U-component_of_WINDS"},"data":[0,0,0,0,0,0,0,0,0,0,0,0,0,0,0,0,0,0,0,0,0,0,0,0,0,0,0,0,0,0,0,0,0,0,0,0,0,0,0,0,0,0,0,0,0,0,0,0,0,0,0,0,0,0,0,0,0,0,2.6613,2.6614,0,2.6654,2.6654,2.6655,2.6632,2.6631,2.663,2.6629,2.6671,2.6673,2.6675,0,0,0,0,0,0,0,0,0,0,0,0,0,2.6518,2.652,2.6613,2.6614,2.6614,2.6654,2.6654,2.6655,2.6632,2.6631,2.6629,2.6628,2.667,2.6672,2.6675,0,0,0,0,0,0,0,0,0,0,0,0,0,2.6559,2.652,2.6613,2.6608,2.6608,2.6654,2.6654,2.6655,2.6632,2.6631,2.6629,2.6627,2.6669,2.6672,2.6675,2.6729,0,0,2.6685,2.6687,0,0,0,0,0,0,0,0,2.6557,2.6562,2.6608,2.6608,2.6608,2.6636,2.6636,2.668,2.6633,2.6623,2.6629,2.6627,2.666,2.6664,2.6676,2.6731,2.6733,2.6686,2.6688,2.6689,2.669,0,0,0,0,0,0,0,2.6554,2.6561,2.6629,2.6609,2.6609,2.6604,2.6608,2.6644,2.6651,2.6624,2.6622,2.6627,2.666,2.6673,2.6676,2.6734,2.6685,2.6688,2.669,2.6692,2.6838,2.684,0,0,0,0,0,0,2.6551,2.6558,2.6628,2.663,2.6578,2.6607,2.6611,2.6629,2.665,2.6652,2.6629,2.6626,2.6668,2.6673,2.6678,2.6744,2.6689,2.6692,2.6694,2.6836,2.6838,2.684,0,0,0,0,0,0,2.6549,2.6558,2.6626,2.6594,2.6602,2.661,2.663,2.663,2.6643,2.6654,2.6655,2.664,2.6667,2.6673,2.6717,2.6745,2.6693,2.6696,2.6834,2.6837,2.6839,2.6875,0,0,0,0,0,0,2.6546,2.6557,2.6577,2.6595,2.6604,2.6664,2.6632,2.6632,2.6648,2.6645,2.6665,2.6667,2.6666,2.6712,2.672,2.6748,2.6699,2.6831,2.6835,2.6838,2.6872,2.6879,2.6885,0,0,0,0,0,2.6543,2.6585,2.6578,2.6587,2.6629,2.6666,2.6672,2.667,2.6651,2.6671,2.6679,2.6666,2.6741,2.6717,2.6726,2.6755,2.6829,2.6834,2.6838,2.6868,2.6877,2.6885,0,0,0,0,0,0,2.657,2.6587,2.658,2.6628,2.6646,2.6662,2.6688,2.6679,2.6702,2.6699,2.6696,2.67,2.6746,2.6755,2.6729,2.681,2.6782,2.6788,2.6802,2.6811,2.6818,2.6815,2.6702,0,0,0,0,0,2.6582,2.661,2.6623,2.6665,2.6674,2.668,2.6696,2.6693,2.6711,2.6718,2.6729,2.6747,2.6775,2.6793,2.6819,2.6873,2.6878,2.6898,2.6905,2.691,2.6916,2.6946,2.6956,2.6855,2.6855,2.6855,0,0,2.6606,2.6619,2.6636,2.6671,2.6684,2.6714,2.6686,2.6718,2.6741,2.6723,2.6766,2.6774,2.6795,2.6844,2.6867,2.6853,2.6945,2.6916,2.692,2.6923,2.6952,2.6961,2.697,2.6858,2.6857,2.6857,0,0,2.6665,2.6677,2.6714,2.6728,2.6749,2.6753,2.6762,2.678,2.6785,2.6828,2.6816,2.6843,2.689,2.6906,2.692,2.6988,2.6978,2.6997,2.7033,2.7063,2.7071,2.7078,2.7103,2.7112,2.7002,2.7002,2.7003,0,2.6692,2.6736,2.6734,2.6768,2.6784,2.677,2.6809,2.6823,2.6851,2.6863,2.6847,2.6908,2.6921,2.6974,2.6991,2.7003,2.7014,2.6994,2.707,2.7077,2.7083,2.7108,2.7117,2.7005,2.7004,2.7004,2.7004,0,2.677,2.6801,2.6828,2.6857,2.6876,2.6912,2.6916,2.6936,2.6932,2.6938,2.6982,2.6997,2.7027,2.704,2.7036,2.7094,2.7085,2.707,2.7042,2.7095,2.7118,2.7127,2.7008,2.7007,2.7006,2.7006,0,0,2.6846,2.6874,2.6884,2.6898,2.6921,2.6945,2.6981,2.701,2.7028,2.7049,2.708,2.7121,2.7108,2.7124,2.7122,2.7149,2.7204,2.7131,2.7131,2.7144,2.727,2.7282,2.7292,2.7197,2.7199,2.72,2.7269,0,2.6907,2.697,2.697,2.7028,2.7058,2.7046,2.7078,2.7096,2.7103,2.7129,2.7137,2.7167,2.7147,2.7157,2.7182,2.7191,2.7229,2.7186,2.7227,2.7228,2.7222,2.7304,2.7316,2.738,2.7277,2.7279,2.728,0,2.6987,2.7011,2.7072,2.7093,2.7105,2.7134,2.7162,2.7187,2.7208,2.7211,2.7231,2.7226,2.7264,2.7235,2.7288,2.7259,2.7276,2.7283,2.7286,2.729,2.7257,2.7311,2.74,2.741,2.7294,2.7293,2.7292,0,2.7038,2.7086,2.7129,2.7141,2.7165,2.7186,2.7197,2.7217,2.7235,2.726,2.7272,2.7301,2.7317,2.734,2.7343,2.7322,2.7397,2.7368,2.7402,2.7402,2.7418,2.7417,2.7512,2.7428,2.7428,2.7428,2.7428,0,2.7107,2.7145,2.7152,2.7179,2.7222,2.7222,2.7265,2.7275,2.7293,2.7322,2.7314,2.7341,2.7344,2.7373,2.7376,2.742,2.7427,2.7432,2.7432,2.7433,2.7432,2.7444,2.744,2.743,2.743,2.7429,2.7429,0,2.7171,2.7177,2.7223,2.7244,2.725,2.7281,2.7298,2.7325,2.7331,2.7368,2.7377,2.7388,2.7422,2.7428,2.7467,2.7469,2.7523,2.7518,2.7516,2.7516,2.7549,2.7546,2.7655,2.767,2.7576,2.7577,2.7577,0,2.7215,2.7244,2.7268,2.7287,2.7299,2.733,2.7349,2.7351,2.7371,2.7399,2.7422,2.7455,2.7482,2.7537,2.7549,2.7579,2.7576,2.7612,2.7581,2.7581,2.7578,2.7577,2.758,2.7618,2.7619,2.762,2.7621,0,2.7292,2.7294,2.7322,2.7351,2.7375,2.7398,2.742,2.7436,2.7441,2.7465,2.7499,2.752,2.7562,2.7595,2.7626,2.7639,2.7632,2.7631,2.7641,2.7642,2.764,2.7642,2.7533,2.7628,2.7628,2.7627,2.7627,2.7626,2.7348,2.7374,2.7396,2.7427,2.7444,2.7466,2.7492,2.7502,2.7531,2.7565,2.7565,2.7603,2.7626,2.7667,2.7682,2.7713,2.7701,2.7715,2.7718,2.7722,2.7726,2.7634,2.7718,2.7718,2.7718,2.7718,2.7717,0,2.7426,2.744,2.7469,2.75,2.7526,2.7517,2.7541,2.7563,2.7597,2.7619,2.7646,2.7687,2.772,2.7735,2.7768,2.779,2.7788,2.7799,2.7797,2.7801,2.7733,2.7722,2.78,2.78,2.78,2.78,2.78,2.78,2.747,2.7514,2.7519,2.7573,2.7586,2.7624,2.7639,2.7659,2.7676,2.7723,2.775,2.776,2.778,2.7814,2.7845,2.7849,2.7862,2.7875,2.7877,2.7814,2.7805,2.7797,2.7787,2.7877,2.7877,2.7942,2.7942,2.7943]},{"header":{"parameterUnit":"m.s-1","parameterCategory":1,"la1":30.2991,"la2":30.254,"lo1":-89.0895,"lo2":-89.0444,"dy":0.0017,"dx":0.0017,"nx":28,"ny":28,"refTime":"2026-01-29T09:00:00:Z","depth":0,"parameterNumber":3,"parameterNumberName":"V-component_of_WINDS"},"data":[0,0,0,0,0,0,0,0,0,0,0,0,0,0,0,0,0,0,0,0,0,0,0,0,0,0,0,0,0,0,0,0,0,0,0,0,0,0,0,0,0,0,0,0,0,0,0,0,0,0,0,0,0,0,0,0,0,0,-7.7217,-7.7218,0,-7.7346,-7.7347,-7.7349,-7.7294,-7.729,-7.7287,-7.7284,-7.7408,-7.7414,-7.742,0,0,0,0,0,0,0,0,0,0,0,0,0,-7.6917,-7.6923,-7.7217,-7.7219,-7.722,-7.7345,-7.7347,-7.7349,-7.7294,-7.729,-7.7287,-7.7283,-7.7406,-7.7413,-7.7421,0,0,0,0,0,0,0,0,0,0,0,0,0,-7.7047,-7.6925,-7.7217,-7.7208,-7.7209,-7.7345,-7.7347,-7.7349,-7.7295,-7.729,-7.7286,-7.7281,-7.7404,-7.7413,-7.7422,-7.7572,0,0,-7.745,-7.7454,0,0,0,0,0,0,0,0,-7.704,-7.7058,-7.7208,-7.7209,-7.721,-7.7299,-7.7287,-7.7424,-7.7296,-7.7262,-7.7284,-7.7279,-7.7375,-7.7386,-7.742,-7.7577,-7.7583,-7.7451,-7.7457,-7.746,-7.7463,0,0,0,0,0,0,0,-7.7031,-7.7052,-7.7268,-7.721,-7.7211,-7.7196,-7.7209,-7.7313,-7.7343,-7.7265,-7.7261,-7.7277,-7.7375,-7.7412,-7.7423,-7.7585,-7.7451,-7.7459,-7.7465,-7.7468,-7.7872,-7.7877,0,0,0,0,0,0,-7.7023,-7.7045,-7.7263,-7.7271,-7.7112,-7.7205,-7.722,-7.7275,-7.7341,-7.7347,-7.7281,-7.7274,-7.7398,-7.7412,-7.7427,-7.7608,-7.746,-7.7469,-7.7474,-7.7867,-7.7873,-7.7879,0,0,0,0,0,0,-7.7016,-7.7043,-7.7258,-7.7157,-7.7184,-7.7215,-7.7277,-7.728,-7.7317,-7.7354,-7.7358,-7.7314,-7.7395,-7.7414,-7.7537,-7.7611,-7.7473,-7.7482,-7.7861,-7.7869,-7.7876,-7.797,0,0,0,0,0,0,-7.7008,-7.7041,-7.7099,-7.7159,-7.7189,-7.7368,-7.7282,-7.7286,-7.7334,-7.7326,-7.7386,-7.7391,-7.7393,-7.7524,-7.7546,-7.7621,-7.7489,-7.7854,-7.7864,-7.7874,-7.796,-7.798,-7.7997,0,0,0,0,0,-7.6998,-7.7118,-7.7103,-7.7129,-7.7264,-7.7373,-7.739,-7.7391,-7.734,-7.7399,-7.7423,-7.7389,-7.76,-7.7537,-7.7562,-7.7641,-7.785,-7.7862,-7.7873,-7.7952,-7.7976,-7.7996,0,0,0,0,0,0,-7.7063,-7.7126,-7.7109,-7.7254,-7.7309,-7.7363,-7.7437,-7.7416,-7.7485,-7.7474,-7.7471,-7.7485,-7.7613,-7.7639,-7.7567,-7.779,-7.7717,-7.7734,-7.7768,-7.7791,-7.7809,-7.78,-7.7497,0,0,0,0,0,-7.7095,-7.7181,-7.723,-7.7352,-7.7382,-7.7405,-7.7452,-7.7449,-7.7505,-7.7527,-7.756,-7.7613,-7.7692,-7.7743,-7.7816,-7.7964,-7.7976,-7.8031,-7.8049,-7.8064,-7.8078,-7.8159,-7.8184,-7.7917,-7.7917,-7.7917,0,0,-7.716,-7.7205,-7.7259,-7.7367,-7.7409,-7.7496,-7.7424,-7.7519,-7.7583,-7.754,-7.766,-7.7686,-7.7745,-7.7882,-7.7943,-7.7907,-7.8155,-7.8079,-7.809,-7.8097,-7.8174,-7.8199,-7.8221,-7.7925,-7.7924,-7.7922,0,0,-7.7324,-7.7367,-7.7475,-7.752,-7.7586,-7.7601,-7.7627,-7.7686,-7.7703,-7.7824,-7.7794,-7.7869,-7.8003,-7.8047,-7.8087,-7.8271,-7.8243,-7.8295,-7.8389,-7.8468,-7.8489,-7.8508,-7.8573,-7.8597,-7.8309,-7.831,-7.831,0,-7.7396,-7.7528,-7.7531,-7.763,-7.7678,-7.7648,-7.7756,-7.7798,-7.7884,-7.7917,-7.7877,-7.8047,-7.8084,-7.8231,-7.8276,-7.831,-7.8338,-7.8287,-7.8486,-7.8505,-7.8522,-7.8585,-7.861,-7.8316,-7.8315,-7.8314,-7.8314,0,-7.7614,-7.7706,-7.7785,-7.7873,-7.793,-7.8032,-7.805,-7.8107,-7.81,-7.8119,-7.8242,-7.8286,-7.8369,-7.8404,-7.8396,-7.855,-7.8526,-7.8486,-7.8412,-7.8554,-7.8613,-7.8636,-7.8324,-7.8322,-7.832,-7.8319,0,0,-7.782,-7.7911,-7.794,-7.798,-7.8053,-7.8123,-7.8224,-7.8309,-7.8358,-7.8419,-7.8503,-7.8619,-7.8584,-7.8629,-7.8626,-7.8695,-7.8839,-7.8647,-7.8648,-7.8681,-7.9011,-7.9041,-7.9068,-7.8821,-7.8826,-7.8829,-7.9006,0,-7.7989,-7.817,-7.8177,-7.8341,-7.8426,-7.84,-7.8488,-7.8541,-7.8562,-7.8636,-7.8657,-7.874,-7.8687,-7.8715,-7.8782,-7.8807,-7.8905,-7.8794,-7.8897,-7.8901,-7.8883,-7.9099,-7.913,-7.9295,-7.9029,-7.9033,-7.9036,0,-7.821,-7.8283,-7.8456,-7.8519,-7.8555,-7.8634,-7.8713,-7.8785,-7.8844,-7.8854,-7.8907,-7.8895,-7.8996,-7.8921,-7.906,-7.8985,-7.9028,-7.9047,-7.9053,-7.9062,-7.8976,-7.9113,-7.9347,-7.9372,-7.9072,-7.9069,-7.9066,0,-7.8344,-7.8484,-7.8607,-7.8642,-7.8717,-7.8774,-7.8807,-7.8863,-7.8914,-7.8982,-7.9015,-7.9093,-7.9135,-7.9195,-7.9204,-7.9148,-7.9344,-7.9269,-7.9355,-7.9355,-7.9396,-7.9393,-7.964,-7.9425,-7.9424,-7.9424,-7.9423,0,-7.8532,-7.8639,-7.8668,-7.8743,-7.8862,-7.8869,-7.8986,-7.9015,-7.9065,-7.9144,-7.9124,-7.9198,-7.9206,-7.9281,-7.9288,-7.9403,-7.9422,-7.9432,-7.9433,-7.9434,-7.9433,-7.9461,-7.945,-7.943,-7.9429,-7.9428,-7.9427,0,-7.8701,-7.8724,-7.8856,-7.8919,-7.8937,-7.9022,-7.9074,-7.9145,-7.9165,-7.9266,-7.9289,-7.932,-7.9409,-7.9424,-7.9527,-7.9531,-7.9669,-7.9658,-7.965,-7.9648,-7.9733,-7.9725,-8.0006,-8.0043,-7.9804,-7.9807,-7.9809,0,-7.8819,-7.8901,-7.8974,-7.9028,-7.9065,-7.9151,-7.9204,-7.9214,-7.9269,-7.9345,-7.9407,-7.9494,-7.9564,-7.9707,-7.9737,-7.9816,-7.9806,-7.9899,-7.9817,-7.9816,-7.9807,-7.9802,-7.981,-7.9914,-7.9917,-7.9919,-7.9921,0,-7.9026,-7.9035,-7.9114,-7.9198,-7.9263,-7.9329,-7.9391,-7.9435,-7.9453,-7.9516,-7.9609,-7.9664,-7.9771,-7.9858,-7.9937,-7.9968,-7.9948,-7.9947,-7.9971,-7.9972,-7.9965,-7.997,-7.9693,-7.994,-7.9938,-7.9936,-7.9935,-7.9935,-7.9173,-7.9246,-7.931,-7.9399,-7.9447,-7.9507,-7.9578,-7.9608,-7.9687,-7.9777,-7.9777,-7.9879,-7.9936,-8.0041,-8.0079,-8.0156,-8.0126,-8.0161,-8.0169,-8.0178,-8.0186,-7.9954,-8.0171,-8.017,-8.017,-8.0169,-8.0169,0,-7.938,-7.942,-7.9503,-7.9592,-7.9663,-7.9641,-7.9709,-7.9768,-7.9858,-7.9916,-7.9987,-8.0093,-8.0178,-8.0216,-8.0299,-8.0353,-8.0346,-8.0375,-8.037,-8.0378,-8.0208,-8.018,-8.038,-8.038,-8.038,-8.038,-8.0379,-8.0379,-7.9496,-7.9618,-7.9635,-7.9781,-7.982,-7.9921,-7.9962,-8.0017,-8.0063,-8.0184,-8.0255,-8.0281,-8.033,-8.0417,-8.0493,-8.0502,-8.0533,-8.0567,-8.0571,-8.0411,-8.039,-8.0369,-8.0342,-8.0573,-8.0574,-8.0734,-8.0736,-8.0737]}]]